Погода в Тургояке

Россия / Челябинская область     55°08′43″N   60°07′21″E
темп.,
°C
ветер,
м/с
пор.,
м/с
влажн.,
%
обл.,
%
осадки,
мм/ч
давл.,
гПа
погр.,
м
8 марта, пн
пн823:00−17зсз3129450 0.3 1010466
02:00−18з279661 0.1 1010176
05:00−19зюз229970 0.1 101121
08:00−18ююз3595100 0.0 1010115
11:00−14ю4895100 0.3 1007301
14:00−9ююз5989100 0.2 1005850
17:00−6юз51285100 0.8 10031259
20:00−9ююз4158867 0.1 1003616
9 марта, вт
вт923:00−7юз3119483 1.4 10051024
02:00−12юз349438 0.1 100678
05:00−11ююз239665 0.1 100484
08:00−9ююз4149286 0.0 1002536
11:00−7зюз8167379 0.3 10041681
14:00−6зсз6118268 0.2 10071375
17:00−7з478276 0.3 10101004
20:00−13з129383 0.0 101121
10 марта, ср
ср1023:00−13ююз019291 0.0 101220
02:00−12вюв1191100 0.0 100920
05:00−12в2297100 0.1 1007113
08:00−12в2297100 0.8 1003131
11:00−8вюв2594100 1.1 1000411
14:00−6вюв3594100 0.6 998546
17:00−5в2596100 2.6 997429
20:00−8зсз2497100 1.8 998139
11 марта, чт
чт1123:00−10сз3697100 3.1 1000467
02:00−14с51095100 1.9 1001610
05:00−16сз3896100 3.3 1004576
08:00−18зсз2396100 0.5 1007209
11:00−16зсз3690100 0.6 1010475
14:00−15зсз498589 0.1 1011607
17:00−16зсз6128875 0.1 1012725
20:00−18зсз6139297 0.1 1015653
12 марта, пт
пт1223:00−21зсз4139574 0.3 1016457
02:00−22зсз3119796 0.3 1017310
05:00−19зсз4159598 0.5 1017539
08:00−20зсз3159779 0.2 1019435
11:00−15зсз5128873 0.4 1020708
14:00−12зсз7128785 0.1 1021819
17:00−12зсз7138778 0.2 1022798
20:00−14зсз8158997 0.1 1025666